Left ArrowRight Arrow

30.00354, -91.81873

Hourly Observations for June 17, 2024

Temp ( °F °C ) Dew Point ( °F °C ) Humidity (%) Winds ( mph kmh ) Pressure ( in mb ) Visibility ( mi km ) Precip ( " mm )
12:53 am 00:53 Clear 79 26.1 77 25 94 94 SE 9 15 29.91 1013 10 16 0.00 0.00
1:53 am 01:53 Clear 79 26.1 77 25 94 94 SE 8 13 29.89 1012 10 16 0.00 0.00
2:53 am 02:53 Clear 79 26.1 77 25 94 94 E 7 11 29.90 1013 10 16 0.00 0.00
3:53 am 03:53 Mostly Clear 79 26.1 77 25 94 94 E 8 13 29.90 1013 10 16 0.00 0.00
4:39 am 04:39 Mostly Clear with Nearby Thunderstorms 78 25.6 77 25 96 96 ENE 10 17 29.89 1012 10 16 0.00 0.00
5:02 am 05:02 Mostly Clear with Nearby Thunderstorms 78 25.6 77 25 96 96 E 9 15 29.89 1012 10 16 0.00 0.00
5:38 am 05:38 Mostly Cloudy with Thunderstorms 78 25.6 77 25 96 96 ENE 8 13 29.91 1013 10 16 0.00 0.00
5:53 am 05:53 Mostly Cloudy with Nearby Thunderstorms 78 25.6 77 25 96 96 E 8 13 29.90 1012 10 16 0.01 0.13
6:10 am 06:10 Partly Cloudy 78 25.6 77 25 96 96 ENE 6 9 29.92 1013 10 16 0.01 0.13
6:53 am 06:53 Mostly Cloudy 79 26.1 77 25 94 94 NNE 6 9 29.91 1013 10 16 0.01 0.13
7:21 am 07:21 Partly Cloudy 79 26.1 77 25 94 94 ENE 7 11 29.92 1013 10 16 0.00 0.00
7:53 am 07:53 Mostly Cloudy 80 26.7 77 25 90 90 NNE 6 9 29.92 1013 10 16 0.00 0.00
8:20 am 08:20 Mostly Cloudy 80 26.7 77 25 90 90 ENE 7 11 29.93 1013 10 16 0.00 0.00
8:32 am 08:32 Mostly Cloudy 80 26.7 77 25 90 90 ENE 6 9 29.93 1013 10 16 0.00 0.00
8:53 am 08:53 Cloudy 81 27.2 78 25.6 91 91 E 6 9 29.94 1014 10 16 0.00 0.00
9:01 am 09:01 Cloudy 82 27.8 78 25.6 88 88 E 6 9 29.94 1014 10 16 0.00 0.00
9:09 am 09:09 Cloudy 82 27.8 77 25 85 85 ENE 6 9 29.95 1014 10 16 0.00 0.00
9:53 am 09:53 Mostly Cloudy 85 29.4 77 25 77 77 E 9 15 29.94 1014 10 16 0.00 0.00
10:04 am 10:04 Mostly Sunny 85 29.4 77 25 77 77 ESE 13 20 29.95 1014 10 16 0.00 0.00
10:43 am 10:43 Mostly Cloudy 86 30 76 24.4 72 72 SE 15 24 29.94 1014 10 16 0.00 0.00
10:50 am 10:50 Mostly Cloudy 88 31 75 24 66 66 SE 12 19 29.94 1014 10 16 0.00 0.00
10:53 am 10:53 Mostly Cloudy 87 30.6 77 25 72 72 ESE 10 17 29.94 1014 10 16 0.00 0.00
11:53 am 11:53 Mostly Cloudy 87 30.6 76 24.4 70 70 SE 10 17 29.94 1014 10 16 0.00 0.00
12:53 pm 12:53 Partly Cloudy 90 32.2 74 23.3 59 59 SSE 12 19 29.92 1013 10 16 0.00 0.00
1:53 pm 13:53 Mostly Sunny 88 31.1 74 23.3 63 63 ESE 22 35 29.93 1013 10 16 0.00 0.00
2:24 pm 14:24 Cloudy with Nearby Thunderstorms 78 25.6 75 23.9 90 90 SSE 16 26 29.95 1014 3 5 0.05 1.27
2:44 pm 14:44 Mostly Cloudy with Light Rain 76 24.4 74 23.3 94 94 SE 9 15 29.95 1014 8 13 0.08 2.03
2:53 pm 14:53 Mostly Cloudy with Light Rain 77 25 74 23.3 90 90 SE 8 13 29.94 1014 10 16 0.08 2.03
3:53 pm 15:53 Mostly Cloudy with Light Rain 77 25 74 23.3 90 90 E 8 13 29.95 1014 10 16 0.01 0.13
4:53 pm 16:53 Mostly Cloudy 78 25.6 75 23.9 90 90 ESE 13 20 29.94 1014 10 16 0.01 0.13
5:14 pm 17:14 Mostly Cloudy with Heavy Rain 77 25 75 23.9 94 94 ESE 18 30 29.94 1014 2 3 0.07 1.78
5:21 pm 17:21 Mostly Cloudy with Light Rain 77 25 74 23.3 90 90 ESE 17 28 29.93 1013 3 5 0.07 1.78
5:53 pm 17:53 Mostly Cloudy with Light Rain 75 23.9 73 22.8 94 94 ESE 17 28 29.91 1013 10 16 0.08 2.03
6:53 pm 18:53 Partly Cloudy 76 24.4 73 22.8 91 91 ESE 10 17 29.90 1013 10 16 0.01 0.13
7:53 pm 19:53 Partly Cloudy with Light Rain 76 24.4 74 23.3 94 94 E 7 11 29.91 1013 10 16 0.01 0.13
8:53 pm 20:53 Mostly Cloudy 76 24.4 74 23.3 94 94 E 9 15 29.91 1013 10 16 0.01 0.13
9:53 pm 21:53 Mostly Clear 76 24.4 74 23.3 94 94 E 9 15 29.94 1014 10 16 0.01 0.13
10:53 pm 22:53 Mostly Clear with Light Rain 77 25 75 23.9 94 94 E 8 13 29.94 1014 10 16 0.01 0.13
11:53 pm 23:53 Clear with Light Rain 77 25 76 24.4 96 96 E 13 20 29.93 1014 10 16 0.01 0.13

Powered by Vaisala Xweather